Vorticity
nan nan nan nan nan nan nan nan nan nan nan nan nan nan nan nan nan nan nan nan nan nan nan nan nan nan nan nan nan nan nan nan nan nan nan nan nan nan nan nan nan nan nan nan nan nan nan nan nan nan nan nan nan nan nan nan nan nan nan nan nan nan nan nan nan nan nan nan nan
nan 11 10 10 9 9 9 10 11 10 9 9 10 10 10 10 10 9 9 9 9 9 9 9 10 10 10 11 12 11 11 11 12 11 12 11 9 9 8 9 10 9 8 8 7 7 9 10 7 5 6 8 10 10 9 9 10 11 11 6 6 10 14 15 14 14 13 11 nan
nan 11 12 12 10 9 8 10 10 10 9 9 9 10 10 10 10 10 10 9 9 9 8 8 10 11 11 11 11 11 11 11 11 10 11 12 12 10 9 9 10 10 9 9 7 5 6 8 7 6 6 7 8 8 9 10 10 11 14 10 6 8 10 14 16 15 15 16 nan
nan 11 10 11 10 8 7 8 9 9 9 11 11 11 11 10 10 10 10 10 10 9 8 7 7 10 12 13 11 10 10 11 9 9 9 10 11 11 10 9 9 9 9 9 8 6 6 4 5 7 9 9 9 8 8 10 10 9 12 13 10 10 9 10 13 14 14 14 nan
nan 10 10 11 10 9 8 8 8 8 9 10 10 10 11 11 10 9 9 9 9 9 8 7 6 7 9 12 12 10 10 12 10 8 9 10 11 12 12 10 9 9 10 10 10 9 9 5 3 7 11 11 9 10 9 9 8 6 6 10 11 11 11 9 10 11 11 11 nan
nan 10 9 10 10 9 8 9 10 9 9 9 8 7 6 8 9 9 8 7 9 10 11 11 9 8 9 10 11 10 10 11 12 10 10 10 11 11 12 12 10 9 9 11 11 11 11 7 4 7 9 10 10 11 11 10 7 6 4 5 8 9 11 8 8 9 10 9 nan
nan 7 8 8 9 9 8 9 11 12 11 10 9 8 5 5 6 7 7 7 8 11 13 14 12 11 10 10 10 9 9 9 10 11 11 10 10 11 11 12 12 11 9 10 11 11 11 8 6 8 9 8 10 14 13 10 7 6 5 3 5 8 11 10 7 10 12 11 nan
nan 9 9 9 9 9 9 8 9 10 10 9 10 9 8 7 7 7 7 8 9 10 10 12 13 12 11 9 8 9 9 9 9 10 10 11 10 10 10 11 11 11 11 11 11 10 9 8 7 9 9 9 10 13 15 12 8 6 5 3 2 5 7 9 9 10 13 14 nan
nan 12 12 11 10 10 9 9 8 7 7 7 8 9 10 9 9 9 10 10 10 10 10 10 13 12 11 10 9 9 9 10 10 10 10 11 11 10 10 11 11 11 11 12 13 12 8 6 7 8 8 7 7 9 13 14 11 8 6 6 3 3 3 5 7 8 9 12 nan
nan 10 11 11 11 11 10 10 10 9 8 8 9 10 10 10 11 11 11 10 10 9 9 10 12 12 12 11 10 10 10 11 11 11 10 10 10 10 9 10 11 10 10 11 14 14 11 8 7 6 5 6 7 7 9 12 12 9 5 6 8 6 3 3 6 7 8 9 nan
nan 8 8 9 10 10 9 9 11 11 10 9 10 11 12 12 12 11 10 10 9 9 9 10 11 11 11 11 11 11 11 10 10 11 10 10 10 10 10 9 10 10 9 9 11 13 12 10 10 8 5 4 8 9 10 10 11 9 5 3 8 9 7 5 5 6 9 10 nan
nan 8 9 10 10 9 8 8 9 9 9 9 9 10 12 13 13 11 10 9 9 9 10 11 12 12 10 10 11 11 11 11 10 10 10 10 10 11 10 10 10 10 10 9 9 10 11 10 11 10 8 5 6 9 12 11 10 10 7 5 6 8 8 7 5 5 7 10 nan
nan 8 9 10 10 8 7 6 7 8 8 7 9 10 11 12 12 11 10 9 7 7 9 11 13 12 11 9 9 10 11 11 11 9 9 9 10 11 11 11 11 11 11 11 9 9 9 10 10 10 10 7 4 6 10 11 10 10 9 8 7 6 7 8 7 6 6 7 nan
nan 8 9 10 9 7 6 6 7 7 8 8 9 10 10 11 11 10 10 9 7 7 8 10 11 11 11 10 9 9 9 10 10 9 8 8 9 10 10 10 11 10 10 11 11 10 8 8 10 10 10 9 6 6 8 9 9 10 10 10 9 8 7 8 8 8 8 7 nan
nan 9 9 9 8 7 6 7 8 8 8 9 9 9 9 10 10 9 9 8 8 8 8 7 8 10 12 11 10 10 10 10 10 9 9 8 9 9 9 9 10 9 9 9 10 11 11 10 10 10 10 10 9 8 8 8 9 9 10 11 11 10 9 9 9 9 9 9 nan
nan 8 9 8 6 5 6 6 7 9 9 8 8 8 8 9 10 10 9 8 9 9 8 6 7 9 11 12 12 12 12 11 11 10 10 9 9 9 9 9 9 9 9 9 9 9 10 11 11 11 11 10 10 10 10 9 9 9 9 9 10 10 10 9 9 9 9 9 nan
nan 7 8 7 6 4 4 4 5 6 7 7 7 8 8 8 8 9 10 9 7 7 6 6 7 8 8 9 12 12 12 11 10 10 10 10 10 10 10 9 10 10 11 10 9 9 9 9 10 11 12 11 11 11 11 10 10 10 10 10 10 10 11 11 9 9 9 10 nan
nan 7 6 6 6 5 4 4 3 5 6 7 8 8 8 7 7 7 9 10 8 7 6 7 7 7 7 7 8 9 11 10 9 9 9 10 10 10 10 9 10 11 11 11 10 10 9 9 9 10 11 12 12 12 12 11 11 11 11 10 10 10 11 12 11 10 10 11 nan
nan 6 5 5 6 7 7 6 5 6 8 10 9 8 7 7 7 6 6 8 10 10 9 8 7 8 8 8 6 7 9 11 10 9 8 9 9 10 9 9 10 10 10 11 11 11 11 11 10 10 10 11 11 11 11 11 10 11 11 12 11 11 11 12 12 11 11 11 nan
nan 5 7 7 9 9 9 9 9 9 9 9 8 7 7 7 7 6 5 7 10 11 11 8 6 6 7 9 7 6 7 11 12 10 9 10 9 9 9 10 10 10 11 11 11 11 11 11 11 11 11 11 10 10 10 10 10 10 10 12 13 12 12 12 12 12 11 11 nan
nan 7 8 9 10 10 10 10 11 10 9 8 8 8 8 8 8 7 8 10 11 12 10 8 7 6 6 7 8 7 7 10 12 11 10 10 10 10 10 11 11 11 11 10 11 11 11 11 11 11 12 12 11 10 10 10 11 11 9 9 11 12 13 12 12 12 12 11 nan
nan 10 10 11 11 11 10 10 10 9 8 8 8 8 8 8 8 8 9 11 11 11 10 9 9 9 8 8 9 8 7 8 10 10 10 10 10 10 11 11 11 10 10 10 11 12 12 12 12 12 11 12 12 11 10 9 10 11 11 9 9 11 12 12 13 13 13 13 nan
nan 12 13 13 12 12 11 12 10 9 8 7 7 8 8 8 8 9 9 9 8 8 9 10 11 12 11 11 10 9 7 6 7 7 8 8 8 9 10 10 11 10 10 11 11 11 11 13 15 14 13 13 13 13 12 11 10 11 12 11 11 11 11 12 13 13 13 13 nan
nan 13 12 12 10 11 11 11 8 7 7 7 8 8 8 8 9 9 9 8 8 8 8 8 10 12 13 12 12 11 9 7 6 6 7 7 8 9 10 10 11 12 12 12 7 2 -1 2 9 14 16 15 14 14 14 13 11 11 11 12 12 11 11 11 11 11 12 12 nan
nan 12 11 9 8 9 9 6 6 6 7 8 8 8 8 8 9 9 9 8 8 9 9 8 8 10 11 12 12 12 11 10 9 8 8 9 9 9 10 10 12 13 13 11 5 -1 -7 -10 -7 0 8 14 14 14 14 14 13 11 11 11 11 11 11 11 11 10 11 12 nan
nan 12 12 11 11 10 9 7 8 8 8 8 7 7 8 9 10 10 9 8 8 9 10 10 9 9 10 12 11 10 10 11 12 11 9 9 9 9 8 8 10 11 12 8 6 4 1 -3 -8 -8 -3 8 11 12 13 15 16 13 12 10 10 9 9 10 11 11 10 11 nan
nan 12 12 12 12 11 11 11 10 9 8 8 7 8 9 10 9 9 8 8 9 10 11 11 12 13 14 15 13 11 9 9 11 12 11 10 9 8 7 7 8 8 8 5 4 4 5 5 3 -1 -3 1 8 10 11 13 16 16 14 12 11 10 9 9 11 11 10 10 nan
nan 10 11 11 11 11 11 11 10 9 9 9 9 10 10 10 9 8 8 8 9 10 11 12 13 15 15 14 14 13 12 10 10 11 12 11 10 9 7 6 7 5 4 2 2 4 5 6 7 6 2 -3 5 11 14 15 16 16 16 16 15 14 13 11 12 13 13 11 nan
nan 11 11 11 11 11 11 10 10 10 11 12 12 12 11 10 9 8 8 8 8 8 8 10 11 10 8 7 11 13 14 12 11 10 11 10 9 9 7 6 7 7 7 4 4 5 6 6 7 7 5 0 2 7 13 14 15 15 15 16 16 16 14 12 10 11 12 13 nan
nan 12 11 10 10 10 10 10 10 11 12 13 12 11 10 9 8 8 9 10 10 8 6 7 5 3 2 4 8 10 11 11 10 9 9 9 7 7 7 7 7 9 11 10 7 7 6 7 7 7 7 7 5 7 9 11 11 12 13 15 16 15 13 12 10 8 7 9 nan
nan 11 11 10 10 10 10 10 10 11 11 10 10 9 9 9 9 10 11 13 11 8 6 6 4 4 5 7 7 8 8 9 9 8 8 9 8 8 8 9 8 9 11 10 8 7 7 7 7 8 8 9 10 10 9 9 9 9 10 12 14 14 12 13 13 11 8 6 nan
nan 11 11 10 10 10 10 11 11 11 11 10 10 10 10 10 12 12 11 10 10 9 9 8 8 9 9 10 10 10 10 10 10 9 8 8 8 8 9 10 12 11 10 9 8 8 7 7 8 8 8 9 12 11 10 10 11 11 12 13 16 15 11 9 12 14 12 8 nan
nan 11 11 10 10 10 11 11 12 12 11 11 11 11 12 13 12 11 11 10 11 13 14 13 13 13 14 14 14 13 13 13 13 12 11 9 9 8 9 10 13 12 9 8 7 7 7 7 7 7 7 10 15 16 16 13 13 14 13 13 16 17 16 10 8 11 13 11 nan
nan 11 11 11 11 11 12 12 13 12 11 11 11 12 12 12 10 10 11 10 11 14 16 16 16 16 16 14 14 14 13 11 12 12 12 11 10 9 8 8 9 8 7 6 6 6 6 6 7 7 8 15 22 22 19 15 13 12 11 11 12 15 16 15 12 11 12 10 nan
nan 11 11 11 11 11 11 12 12 12 11 10 11 11 12 11 11 12 11 9 10 12 14 13 14 15 14 12 12 13 12 11 10 10 10 10 10 10 9 6 5 6 6 6 6 6 6 7 7 8 12 22 26 23 18 17 15 14 12 11 11 12 13 15 14 14 13 12 nan
nan 10 10 10 11 11 11 11 11 11 10 10 10 11 12 12 13 13 13 13 12 12 12 11 11 11 11 13 12 13 13 13 12 11 10 9 9 10 9 8 7 9 10 9 8 7 7 7 8 10 16 25 24 19 16 17 17 17 16 14 13 13 13 14 15 15 14 14 nan
nan 10 10 10 10 10 10 11 10 10 10 10 12 13 13 13 14 13 13 15 13 12 11 11 9 9 10 12 11 12 13 14 12 10 9 9 8 8 8 9 9 11 13 12 9 8 7 7 8 11 18 23 18 15 14 15 15 16 17 17 17 16 14 14 16 16 16 14 nan
nan 10 10 10 10 10 10 10 10 10 10 12 13 12 12 14 14 13 13 12 12 12 11 10 9 9 9 9 11 12 13 12 10 9 8 9 9 8 8 9 9 11 12 11 8 8 7 7 8 11 15 16 14 14 15 15 13 13 15 16 18 18 15 13 14 17 19 19 nan
nan 10 10 10 10 10 10 9 10 10 11 12 11 9 10 13 12 10 11 11 12 12 11 9 9 9 9 9 11 12 12 11 10 9 9 10 10 8 6 8 9 10 9 8 7 6 7 7 8 10 14 17 17 16 15 14 13 13 13 13 15 17 16 13 12 14 19 24 nan
nan 11 10 10 10 10 10 10 10 11 12 11 10 11 13 13 10 10 11 11 12 11 10 10 10 10 11 12 12 11 10 9 10 10 11 11 10 9 9 10 10 9 9 9 8 8 7 8 9 11 17 21 19 16 14 13 13 13 12 12 12 14 15 14 12 12 15 22 nan
nan nan nan nan nan nan nan nan nan nan nan nan nan nan nan nan nan nan nan nan nan nan nan nan nan nan nan nan nan nan nan nan nan nan nan nan nan nan nan nan nan nan nan nan nan nan nan nan nan nan nan nan nan nan nan nan nan nan nan nan nan nan nan nan nan nan nan nan nan
CAPE
nan nan nan nan nan nan nan nan nan nan nan nan nan nan nan nan nan nan nan nan nan nan nan nan nan nan nan nan nan nan nan nan nan nan nan nan nan nan nan nan nan nan nan nan nan nan nan nan nan nan nan nan nan nan nan nan nan nan nan nan nan nan nan nan nan nan nan nan nan
nan nan nan nan nan nan nan nan nan nan nan nan nan nan nan nan nan nan nan nan nan nan nan nan nan nan nan nan nan nan nan nan nan nan nan nan nan nan nan nan nan nan nan nan nan nan nan nan nan nan nan nan nan nan nan nan nan nan nan nan nan nan nan nan nan nan nan nan nan
nan nan nan nan nan nan nan nan nan nan nan nan nan nan nan nan nan nan nan nan nan nan nan nan nan nan nan nan nan nan nan nan nan nan nan nan nan nan nan nan nan nan nan nan nan nan nan nan nan nan nan nan nan nan nan nan nan nan nan nan nan nan nan nan nan nan nan nan nan
nan nan nan nan nan nan nan nan nan nan nan nan nan nan nan nan nan nan nan nan nan nan nan nan nan nan nan nan nan nan nan nan nan nan nan nan nan nan nan nan nan nan nan nan nan nan nan nan nan nan nan nan nan nan nan nan nan nan nan nan nan nan nan nan nan nan nan nan nan
nan nan nan nan nan nan nan nan nan nan nan nan nan nan nan nan nan nan nan nan nan nan nan nan nan nan nan nan nan nan nan nan nan nan nan nan nan nan nan nan nan nan nan nan nan nan nan nan nan nan nan nan nan nan nan nan nan nan nan nan nan nan nan nan nan nan nan nan nan
nan nan nan nan nan nan nan nan nan nan nan nan nan nan nan nan nan nan nan nan nan nan nan nan nan nan nan nan nan nan nan nan nan nan nan nan nan nan nan nan nan nan nan nan nan nan nan nan nan nan nan nan nan nan nan nan nan nan nan nan nan nan nan nan nan nan nan nan nan
nan nan nan nan nan nan nan nan nan nan nan nan nan nan nan nan nan nan nan nan nan nan nan nan nan nan nan nan nan nan nan nan nan nan nan nan nan nan nan nan nan nan nan nan nan nan nan nan nan nan nan nan nan nan nan nan nan nan nan nan nan nan nan nan nan nan nan nan nan
nan nan nan nan nan nan nan nan nan nan nan nan nan nan nan nan nan nan nan nan nan nan nan nan nan nan nan nan nan nan nan nan nan nan nan nan nan nan nan nan nan nan nan nan nan nan nan nan nan nan nan nan nan nan nan nan nan nan nan nan nan nan nan nan nan nan nan nan nan
nan nan nan nan nan nan nan nan nan nan nan nan nan nan nan nan nan nan nan nan nan nan nan nan nan nan nan nan nan nan nan nan nan nan nan nan nan nan nan nan nan nan nan nan nan nan nan nan nan nan nan nan nan nan nan nan nan nan nan nan nan nan nan nan nan nan nan nan nan
nan nan nan nan nan nan nan nan nan nan nan nan nan nan nan nan nan nan nan nan nan nan nan nan nan nan nan nan nan nan nan nan nan nan nan nan nan nan nan nan nan nan nan nan nan nan nan nan nan nan nan nan nan nan nan nan nan nan nan nan nan nan nan nan nan nan nan nan nan
nan nan nan nan nan nan nan nan nan nan nan nan nan nan nan nan nan nan nan nan nan nan nan nan nan nan nan nan nan nan nan nan nan nan nan nan nan nan nan nan nan nan nan nan nan nan nan nan nan nan nan nan nan nan nan nan nan nan nan nan nan nan nan nan nan nan nan nan nan
nan nan nan nan nan nan nan nan nan nan nan nan nan nan nan nan nan nan nan nan nan nan nan nan nan nan nan nan nan nan nan nan nan nan nan nan nan nan nan nan nan nan nan nan nan nan nan nan nan nan nan nan nan nan nan nan nan nan nan nan nan nan nan nan nan nan nan nan nan
nan nan nan nan nan nan nan nan nan nan nan nan nan nan nan nan nan nan nan nan nan nan nan nan nan nan nan nan nan nan nan nan nan nan nan nan nan nan nan nan nan nan nan nan nan nan nan nan nan nan nan nan nan nan nan nan nan nan nan nan nan nan nan nan nan nan nan nan nan
nan nan nan nan nan nan nan nan nan nan nan nan nan nan nan nan nan nan nan nan nan nan nan nan nan nan nan nan nan nan nan nan nan nan nan nan nan nan nan nan nan nan nan nan nan nan nan nan nan nan nan nan nan nan nan nan nan nan nan nan nan nan nan nan nan nan nan nan nan
nan nan nan nan nan nan nan nan nan nan nan nan nan nan nan nan nan nan nan nan nan nan nan nan nan nan nan nan nan nan nan nan nan nan nan nan nan nan nan nan nan nan nan nan nan nan nan nan nan nan nan nan nan nan nan nan nan nan nan nan nan nan nan nan nan nan nan nan nan
nan nan nan nan nan nan nan nan nan nan nan nan nan nan nan nan nan nan nan nan nan nan nan nan nan nan nan nan nan nan nan nan nan nan nan nan nan nan nan nan nan nan nan nan nan nan nan nan nan nan nan nan nan nan nan nan nan nan nan nan nan nan nan nan nan nan nan nan nan
nan nan nan nan nan nan nan nan nan nan nan nan nan nan nan nan nan nan nan nan nan nan nan nan nan nan nan nan nan nan nan nan nan nan nan nan nan nan nan nan nan nan nan nan nan nan nan nan nan nan nan nan nan nan nan nan nan nan nan nan nan nan nan nan nan nan nan nan nan
nan nan nan nan nan nan nan nan nan nan nan nan nan nan nan nan nan nan nan nan nan nan nan nan nan nan nan nan nan nan nan nan nan nan nan nan nan nan nan nan nan nan nan nan nan nan nan nan nan nan nan nan nan nan nan nan nan nan nan nan nan nan nan nan nan nan nan nan nan
nan nan nan nan nan nan nan nan nan nan nan nan nan nan nan nan nan nan nan nan nan nan nan nan nan nan nan nan nan nan nan nan nan nan nan nan nan nan nan nan nan nan nan nan nan nan nan nan nan nan nan nan nan nan nan nan nan nan nan nan nan nan nan nan nan nan nan nan nan
nan nan nan nan nan nan nan nan nan nan nan nan nan nan nan nan nan nan nan nan nan nan nan nan nan nan nan nan nan nan nan nan nan nan nan nan nan nan nan nan nan nan nan nan nan nan nan nan nan nan nan nan nan nan nan nan nan nan nan nan nan nan nan nan nan nan nan nan nan
nan nan nan nan nan nan nan nan nan nan nan nan nan nan nan nan nan nan nan nan nan nan nan nan nan nan nan nan nan nan nan nan nan nan nan nan nan nan nan nan nan nan nan nan nan nan nan nan nan nan nan nan nan nan nan nan nan nan nan nan nan nan nan nan nan nan nan nan nan
nan nan nan nan nan nan nan nan nan nan nan nan nan nan nan nan nan nan nan nan nan nan nan nan nan nan nan nan nan nan nan nan nan nan nan nan nan nan nan nan nan nan nan nan nan nan nan nan nan nan nan nan nan nan nan nan nan nan nan nan nan nan nan nan nan nan nan nan nan
nan nan nan nan nan nan nan nan nan nan nan nan nan nan nan nan nan nan nan nan nan nan nan nan nan nan nan nan nan nan nan nan nan nan nan nan nan nan nan nan nan nan nan nan nan nan nan nan nan nan nan nan nan nan nan nan nan nan nan nan nan nan nan nan nan nan nan nan nan
nan nan nan nan nan nan nan nan nan nan nan nan nan nan nan nan nan nan nan nan nan nan nan nan nan nan nan nan nan nan nan nan nan nan nan nan nan nan nan nan nan nan nan nan nan nan nan nan nan nan nan nan nan nan nan nan nan nan nan nan nan nan nan nan nan nan nan nan nan
nan nan nan nan nan nan nan nan nan nan nan nan nan nan nan nan nan nan nan nan nan nan nan nan nan nan nan nan nan nan nan nan nan nan nan nan nan nan nan nan nan nan nan nan nan nan nan nan nan nan nan nan nan nan nan nan nan nan nan nan nan nan nan nan nan nan nan nan nan
nan nan nan nan nan nan nan nan nan nan nan nan nan nan nan nan nan nan nan nan nan nan nan nan nan nan nan nan nan nan nan nan nan nan nan nan nan nan nan nan nan nan nan nan nan nan nan 0 3 3 nan nan nan nan nan nan nan nan nan nan nan nan nan nan nan nan nan nan nan
nan nan nan nan nan nan nan nan nan nan nan nan nan nan nan nan nan nan nan nan nan nan nan nan nan nan nan nan nan nan nan nan nan nan nan nan nan nan nan nan nan nan nan nan nan nan nan 1 5 5 0 nan nan nan nan nan nan nan nan nan nan nan nan nan nan nan nan nan nan
nan nan nan nan nan nan nan nan nan nan nan nan nan nan nan nan nan nan nan nan nan nan nan nan nan nan nan nan nan nan nan nan nan nan nan nan nan nan nan nan nan nan nan nan nan nan 0 2 6 6 8 nan nan nan nan nan nan nan nan nan nan nan nan nan nan nan nan nan nan
nan nan nan nan nan nan nan nan nan nan nan nan nan nan nan nan nan nan nan nan nan nan nan nan nan nan nan nan nan nan nan nan nan nan nan nan nan nan nan nan nan nan nan nan nan nan 1 2 7 7 12 15 nan nan nan nan nan nan nan nan nan nan nan nan nan nan nan nan nan
nan nan nan nan nan nan nan nan nan nan nan nan nan nan nan nan nan nan nan nan nan nan nan nan nan nan nan nan nan nan nan nan nan nan nan nan nan nan nan nan nan nan nan nan nan nan 1 3 7 7 13 18 6 nan nan nan nan nan nan nan nan nan nan nan nan nan nan nan nan
nan nan nan nan nan nan nan nan nan nan nan nan nan nan nan nan nan nan nan nan nan nan nan nan nan nan nan nan nan nan nan nan nan nan nan nan nan nan nan nan nan nan nan nan nan nan 0 3 8 8 15 25 15 nan nan nan nan nan nan nan nan nan nan nan nan nan nan nan nan
nan nan nan nan nan nan nan nan nan nan nan nan nan nan nan nan nan nan nan nan nan nan nan nan nan nan nan nan nan nan nan nan nan nan nan nan nan nan nan nan nan nan nan nan nan nan 1 4 11 11 19 30 20 nan nan nan nan nan nan nan nan nan nan nan nan nan nan nan nan
nan nan nan nan nan nan nan nan nan nan nan nan nan nan nan nan nan nan nan nan nan nan nan nan nan nan nan nan nan nan nan nan nan nan nan nan nan nan nan nan nan nan nan nan nan nan 1 7 15 15 24 34 17 nan nan nan nan nan nan nan nan nan nan nan nan nan nan nan nan
nan nan nan nan nan nan nan nan nan nan nan nan nan nan nan nan nan nan nan nan nan nan nan nan nan nan nan nan nan nan nan nan nan nan nan nan nan nan nan nan nan nan nan nan nan nan 2 10 18 18 29 37 12 nan nan nan nan nan nan nan nan nan nan nan nan nan nan nan nan
nan nan nan nan nan nan nan nan nan nan nan nan nan nan nan nan nan nan nan nan nan nan nan nan nan nan nan nan nan nan nan nan nan nan nan nan nan nan nan nan nan nan nan nan nan nan 2 10 19 19 29 30 5 nan nan nan nan nan nan nan nan nan nan nan nan nan nan nan nan
nan nan nan nan nan nan nan nan nan nan nan nan nan nan nan nan nan nan nan nan nan nan nan nan nan nan nan nan nan nan nan nan nan nan nan nan nan nan nan nan nan nan nan nan nan nan 1 10 20 20 31 22 1 nan nan nan nan nan nan nan nan nan nan nan nan nan nan nan nan
nan nan nan nan nan nan nan nan nan nan nan nan nan nan nan nan nan nan nan nan nan nan nan nan nan nan nan nan nan nan nan nan nan nan nan nan nan nan nan nan nan nan nan nan nan nan 2 11 24 24 31 12 nan nan nan nan nan nan nan nan nan nan nan nan nan nan nan nan nan
nan nan nan nan nan nan nan nan nan nan nan nan nan nan nan nan nan nan nan nan nan nan nan nan nan nan nan nan nan nan nan nan nan nan nan nan nan nan nan nan nan nan nan nan nan nan 1 12 26 26 30 5 nan nan nan nan nan nan nan nan nan nan nan nan nan nan nan nan nan
nan nan nan nan nan nan nan nan nan nan nan nan nan nan nan nan nan nan nan nan nan nan nan nan nan nan nan nan nan nan nan nan nan nan nan nan nan nan nan nan nan nan nan nan nan nan 3 16 29 29 32 11 nan nan nan nan nan nan nan nan nan nan nan nan nan nan nan nan 4
nan nan nan nan nan nan nan nan nan nan nan nan nan nan nan nan nan nan nan nan nan nan nan nan nan nan nan nan nan nan nan nan nan nan nan nan nan nan nan nan nan nan nan nan nan nan 4 18 29 29 33 11 nan nan nan nan nan nan nan nan nan nan nan nan nan nan nan nan 19
nan nan nan nan nan nan nan nan nan nan nan nan nan nan nan nan nan nan nan nan nan nan nan nan nan nan nan nan nan nan nan nan nan nan nan nan nan nan nan nan nan nan nan nan nan nan 5 17 25 25 31 5 nan nan nan nan nan nan nan nan nan nan nan nan nan nan nan nan nan